[[{"header":{"parameterUnit":"m.s-1","parameterCategory":1,"la1":30.2991,"la2":30.254,"lo1":-89.0895,"lo2":-89.0444,"dy":0.0017,"dx":0.0017,"nx":28,"ny":28,"refTime":"2024-10-03T03:00:00:Z","depth":0,"parameterNumber":2,"parameterNumberName":"U-component_of_WINDS"},"data":[0,0,0,0,0,0,0,0,0,0,0,0,0,0,0,0,0,0,0,0,0,0,0,0,0,0,0,0,0,0,0,0,0,0,0,0,0,0,0,0,0,0,0,0,0,0,0,0,0,0,0,0,0,0,0,0,0,0,-5.3932,-5.3933,0,-5.4068,-5.407,-5.4071,-5.3966,-5.3962,-5.3957,-5.3953,-5.4092,-5.41,-5.4108,0,0,0,0,0,0,0,0,0,0,0,0,0,-5.3579,-5.3586,-5.3931,-5.3933,-5.3935,-5.4068,-5.407,-5.4072,-5.3967,-5.3962,-5.3956,-5.3951,-5.409,-5.4099,-5.4108,0,0,0,0,0,0,0,0,0,0,0,0,0,-5.3725,-5.3588,-5.3931,-5.3899,-5.3897,-5.4068,-5.407,-5.4072,-5.3968,-5.3961,-5.3955,-5.3948,-5.4086,-5.4098,-5.411,-5.4319,0,0,-5.4146,-5.4151,0,0,0,0,0,0,0,0,-5.3717,-5.3738,-5.3902,-5.3901,-5.39,-5.3993,-5.3996,-5.4155,-5.397,-5.3941,-5.3953,-5.3945,-5.4065,-5.4078,-5.4118,-5.4326,-5.4331,-5.4147,-5.4154,-5.4159,-5.4163,0,0,0,0,0,0,0,-5.3707,-5.3732,-5.3985,-5.3904,-5.3903,-5.3877,-5.389,-5.4026,-5.4039,-5.3943,-5.3936,-5.3954,-5.4063,-5.4107,-5.4121,-5.4334,-5.4147,-5.4157,-5.4165,-5.4169,-5.4719,-5.4726,0,0,0,0,0,0,-5.37,-5.3724,-5.3981,-5.3989,-5.379,-5.3889,-5.3904,-5.397,-5.4038,-5.4041,-5.3959,-5.3948,-5.409,-5.4107,-5.4125,-5.4375,-5.4159,-5.417,-5.4177,-5.4712,-5.4721,-5.4729,0,0,0,0,0,0,-5.3693,-5.3724,-5.3975,-5.3855,-5.3885,-5.3902,-5.3978,-5.3976,-5.4021,-5.405,-5.4051,-5.4002,-5.4086,-5.4109,-5.4272,-5.4378,-5.4176,-5.4187,-5.4703,-5.4714,-5.4725,-5.4876,0,0,0,0,0,0,-5.3683,-5.3722,-5.3802,-5.3858,-5.3892,-5.4121,-5.3984,-5.3984,-5.4042,-5.4028,-5.4091,-5.4094,-5.4082,-5.4255,-5.4284,-5.4391,-5.4196,-5.4693,-5.4708,-5.4721,-5.4862,-5.4891,-5.4917,0,0,0,0,0,-5.3671,-5.3839,-5.3807,-5.3838,-5.3992,-5.4127,-5.4146,-5.4129,-5.4051,-5.4131,-5.415,-5.4092,-5.4362,-5.4272,-5.4304,-5.4417,-5.4687,-5.4704,-5.472,-5.485,-5.4886,-5.4916,0,0,0,0,0,0,-5.3796,-5.3846,-5.381,-5.4002,-5.4061,-5.4109,-5.421,-5.4168,-5.425,-5.4234,-5.4209,-5.4224,-5.4395,-5.4422,-5.4321,-5.4623,-5.4512,-5.4536,-5.4599,-5.4634,-5.466,-5.4651,-5.4206,0,0,0,0,0,-5.3845,-5.3951,-5.3989,-5.4154,-5.4185,-5.4193,-5.4251,-5.4232,-5.4292,-5.4317,-5.4347,-5.4408,-5.4506,-5.4571,-5.4663,-5.4865,-5.4877,-5.4958,-5.4985,-5.5008,-5.5029,-5.5138,-5.5175,-5.4784,-5.4784,-5.4784,0,0,-5.3949,-5.399,-5.4058,-5.418,-5.4223,-5.4333,-5.4215,-5.4335,-5.4416,-5.4335,-5.4491,-5.4516,-5.4581,-5.4765,-5.4847,-5.4792,-5.5139,-5.5029,-5.5047,-5.5056,-5.5159,-5.5196,-5.5229,-5.4795,-5.4793,-5.4792,0,0,-5.4194,-5.4236,-5.4378,-5.4424,-5.4492,-5.4496,-5.453,-5.4585,-5.4598,-5.4754,-5.4696,-5.4791,-5.4961,-5.501,-5.5057,-5.5321,-5.5272,-5.5352,-5.5495,-5.5602,-5.5632,-5.5659,-5.5754,-5.5788,-5.5373,-5.5373,-5.5373,0,-5.4315,-5.4478,-5.4456,-5.4582,-5.4637,-5.4569,-5.4712,-5.4758,-5.4852,-5.4892,-5.4829,-5.5041,-5.508,-5.5275,-5.5339,-5.5379,-5.5418,-5.5345,-5.563,-5.5657,-5.5682,-5.5772,-5.5807,-5.5383,-5.5381,-5.538,-5.538,0,-5.4623,-5.4737,-5.4843,-5.4937,-5.5004,-5.5138,-5.5136,-5.5207,-5.5182,-5.5193,-5.5353,-5.5397,-5.5497,-5.5542,-5.5519,-5.5734,-5.5697,-5.5633,-5.5521,-5.5729,-5.5813,-5.5847,-5.5396,-5.5393,-5.539,-5.5387,0,0,-5.495,-5.503,-5.507,-5.5111,-5.5181,-5.5269,-5.5399,-5.5497,-5.5559,-5.5626,-5.5735,-5.588,-5.5821,-5.5875,-5.5857,-5.595,-5.6157,-5.5874,-5.5875,-5.5925,-5.6396,-5.6445,-5.6485,-5.6124,-5.6131,-5.6136,-5.6391,0,-5.5199,-5.5427,-5.5412,-5.5627,-5.5732,-5.5668,-5.5782,-5.5837,-5.585,-5.5941,-5.5955,-5.6059,-5.5972,-5.6004,-5.6094,-5.6113,-5.6251,-5.6094,-5.6225,-5.623,-5.6212,-5.6529,-5.658,-5.6819,-5.6423,-5.6429,-5.6433,0,-5.552,-5.5599,-5.5825,-5.5879,-5.5922,-5.6025,-5.6114,-5.6201,-5.6262,-5.6265,-5.6326,-5.6292,-5.6424,-5.6309,-5.6489,-5.6383,-5.6435,-5.6453,-5.6462,-5.6473,-5.6345,-5.6549,-5.6894,-5.693,-5.6484,-5.648,-5.6476,0,-5.5737,-5.59,-5.6056,-5.6093,-5.616,-5.6234,-5.6265,-5.632,-5.638,-5.6457,-5.6496,-5.6587,-5.6638,-5.6709,-5.6701,-5.6618,-5.6885,-5.6769,-5.6891,-5.6892,-5.6951,-5.6947,-5.7309,-5.6985,-5.6984,-5.6983,-5.6983,0,-5.6017,-5.6157,-5.6154,-5.6251,-5.6406,-5.6386,-5.6541,-5.6563,-5.6612,-5.6712,-5.6662,-5.6756,-5.6739,-5.6834,-5.6828,-5.6979,-5.7002,-5.7008,-5.7005,-5.7013,-5.7012,-5.7047,-5.703,-5.6993,-5.6991,-5.6989,-5.6987,0,-5.6285,-5.6289,-5.6455,-5.6505,-5.6521,-5.6634,-5.6676,-5.6767,-5.6776,-5.6902,-5.693,-5.6945,-5.7053,-5.7052,-5.7175,-5.7171,-5.7356,-5.7334,-5.7336,-5.7331,-5.7454,-5.7443,-5.7851,-5.7904,-5.7545,-5.7548,-5.7551,0,-5.6464,-5.6571,-5.6633,-5.6696,-5.6732,-5.6834,-5.6895,-5.688,-5.6945,-5.7023,-5.7105,-5.7208,-5.729,-5.7466,-5.7487,-5.7581,-5.756,-5.7697,-5.7574,-5.7579,-5.7563,-5.7557,-5.7567,-5.7721,-5.7725,-5.7729,-5.7731,0,-5.678,-5.6777,-5.6867,-5.6959,-5.7034,-5.7105,-5.717,-5.7225,-5.7216,-5.7292,-5.7403,-5.7466,-5.7592,-5.7696,-5.7786,-5.7817,-5.7774,-5.777,-5.7803,-5.7812,-5.7809,-5.7813,-5.7402,-5.7761,-5.7758,-5.7755,-5.7754,-5.7753,-5.701,-5.7102,-5.716,-5.7262,-5.731,-5.7372,-5.746,-5.748,-5.7572,-5.7674,-5.7659,-5.7782,-5.784,-5.7957,-5.7997,-5.8092,-5.8044,-5.8092,-5.8105,-5.8117,-5.8131,-5.7794,-5.8109,-5.8108,-5.8107,-5.8106,-5.8106,0,-5.7324,-5.7358,-5.7452,-5.7546,-5.7627,-5.7578,-5.7648,-5.7719,-5.7828,-5.7886,-5.7968,-5.8095,-5.8195,-5.8224,-5.832,-5.8392,-5.8374,-5.8417,-5.8412,-5.842,-5.8168,-5.813,-5.843,-5.843,-5.843,-5.843,-5.843,-5.843,-5.7496,-5.765,-5.7654,-5.783,-5.7863,-5.7984,-5.8028,-5.8085,-5.8131,-5.8275,-5.8358,-5.8377,-5.8423,-5.8523,-5.8613,-5.8618,-5.8656,-5.8708,-5.8706,-5.847,-5.8438,-5.8407,-5.8371,-5.8717,-5.8717,-5.895,-5.8952,-5.8954]},{"header":{"parameterUnit":"m.s-1","parameterCategory":1,"la1":30.2991,"la2":30.254,"lo1":-89.0895,"lo2":-89.0444,"dy":0.0017,"dx":0.0017,"nx":28,"ny":28,"refTime":"2024-10-03T03:00:00:Z","depth":0,"parameterNumber":3,"parameterNumberName":"V-component_of_WINDS"},"data":[0,0,0,0,0,0,0,0,0,0,0,0,0,0,0,0,0,0,0,0,0,0,0,0,0,0,0,0,0,0,0,0,0,0,0,0,0,0,0,0,0,0,0,0,0,0,0,0,0,0,0,0,0,0,0,0,0,0,0.6146,0.6147,0,0.6218,0.6219,0.6219,0.6315,0.6317,0.6319,0.632,0.6389,0.639,0.639,0,0,0,0,0,0,0,0,0,0,0,0,0,0.6088,0.6089,0.6146,0.6147,0.6148,0.6218,0.6219,0.622,0.6315,0.6317,0.6319,0.6321,0.6389,0.639,0.639,0,0,0,0,0,0,0,0,0,0,0,0,0,0.6132,0.6089,0.6146,0.6204,0.621,0.6217,0.6219,0.622,0.6315,0.6317,0.632,0.6322,0.6389,0.6389,0.639,0.6345,0,0,0.6392,0.6392,0,0,0,0,0,0,0,0,0.6129,0.6134,0.6194,0.62,0.6207,0.626,0.6224,0.6261,0.6314,0.6275,0.632,0.6323,0.6344,0.6348,0.6356,0.6348,0.6351,0.6392,0.6392,0.6392,0.6392,0,0,0,0,0,0,0,0.6126,0.6131,0.6174,0.6195,0.6203,0.6225,0.6234,0.6231,0.6295,0.6278,0.6286,0.6293,0.6348,0.6356,0.6359,0.6352,0.6392,0.6392,0.6392,0.6393,0.631,0.6307,0,0,0,0,0,0,0.6115,0.6128,0.6172,0.6176,0.6173,0.6224,0.6234,0.624,0.6295,0.6306,0.6291,0.6297,0.6354,0.6358,0.6362,0.6312,0.6392,0.6393,0.6393,0.6312,0.6309,0.6307,0,0,0,0,0,0,0.6113,0.6118,0.6169,0.6154,0.6162,0.6223,0.6229,0.6241,0.6249,0.6305,0.6316,0.6287,0.6356,0.6361,0.6349,0.6315,0.6393,0.6393,0.6315,0.6311,0.6308,0.6212,0,0,0,0,0,0,0.6111,0.6117,0.6101,0.6153,0.6163,0.6155,0.6227,0.624,0.625,0.6259,0.6304,0.6314,0.6358,0.6347,0.6349,0.6318,0.6394,0.6318,0.6313,0.6309,0.6218,0.6205,0.6194,0,0,0,0,0,0.6109,0.607,0.6099,0.6104,0.6145,0.6153,0.6159,0.6211,0.6247,0.6231,0.6267,0.6313,0.6319,0.6345,0.6348,0.6316,0.6321,0.6315,0.6309,0.6223,0.6208,0.6194,0,0,0,0,0,0,0.601,0.6078,0.6111,0.6089,0.6115,0.617,0.6151,0.6193,0.6208,0.6216,0.6279,0.6288,0.6268,0.6291,0.6319,0.6275,0.6327,0.6321,0.626,0.6246,0.6234,0.6228,0.6394,0,0,0,0,0,0.5986,0.5989,0.6048,0.6022,0.6033,0.609,0.6095,0.6134,0.6163,0.6174,0.6209,0.6234,0.6242,0.6246,0.6256,0.6223,0.6233,0.6202,0.619,0.618,0.6174,0.6157,0.6144,0.6288,0.6288,0.6288,0,0,0.5936,0.5973,0.5971,0.6003,0.6028,0.6028,0.6098,0.6095,0.6096,0.6173,0.6164,0.619,0.6223,0.6199,0.6191,0.6218,0.6137,0.6173,0.6164,0.6164,0.615,0.6136,0.6124,0.6284,0.6285,0.6286,0,0,0.5844,0.5873,0.5855,0.5879,0.5916,0.5954,0.5949,0.5998,0.6019,0.6011,0.6069,0.607,0.6082,0.6103,0.6115,0.6032,0.6074,0.6034,0.597,0.5953,0.5942,0.5932,0.5901,0.5889,0.6028,0.6028,0.6027,0,0.5776,0.578,0.5839,0.5833,0.5845,0.5917,0.5898,0.5918,0.5956,0.5962,0.5993,0.601,0.6037,0.6019,0.5999,0.6006,0.6002,0.6028,0.5939,0.593,0.5921,0.5892,0.5881,0.6022,0.6023,0.6023,0.6024,0,0.5694,0.5696,0.5677,0.5713,0.5723,0.571,0.5767,0.5769,0.5807,0.5841,0.5832,0.5867,0.5886,0.5885,0.5921,0.5872,0.5888,0.5927,0.598,0.5901,0.5875,0.5864,0.6015,0.6017,0.6018,0.6019,0,0,0.5541,0.5611,0.5603,0.562,0.5667,0.5669,0.5659,0.5679,0.568,0.5704,0.5696,0.5706,0.5743,0.5757,0.5796,0.5781,0.5712,0.5823,0.5825,0.58,0.5659,0.5627,0.5613,0.5741,0.574,0.5738,0.5656,0,0.5456,0.5445,0.5499,0.5473,0.5474,0.5543,0.5535,0.5562,0.5594,0.5599,0.5635,0.564,0.569,0.5698,0.5687,0.5723,0.5684,0.573,0.5733,0.5733,0.5721,0.56,0.5566,0.5487,0.5646,0.5644,0.5643,0,0.5356,0.5376,0.5351,0.5399,0.5402,0.5394,0.5416,0.5421,0.5453,0.5477,0.5493,0.5539,0.5532,0.5584,0.5574,0.5604,0.5609,0.5626,0.5625,0.5625,0.5681,0.5595,0.5463,0.545,0.5628,0.5629,0.563,0,0.5245,0.5266,0.5253,0.5266,0.5323,0.5315,0.5338,0.5373,0.5381,0.54,0.5406,0.5424,0.5433,0.5445,0.5494,0.5527,0.5478,0.5534,0.5496,0.5495,0.5481,0.5481,0.5345,0.5487,0.5487,0.5487,0.5487,0,0.5144,0.5125,0.5204,0.5196,0.5177,0.5238,0.5217,0.5247,0.5277,0.5275,0.5336,0.5333,0.5399,0.5402,0.5441,0.5426,0.543,0.5448,0.5458,0.5442,0.5439,0.5444,0.545,0.5484,0.5485,0.5485,0.5486,0,0.5015,0.5068,0.5058,0.5113,0.5127,0.511,0.5157,0.5151,0.5188,0.5184,0.5187,0.5244,0.5251,0.5302,0.532,0.5346,0.5317,0.5339,0.5306,0.5312,0.5271,0.5273,0.5132,0.5116,0.5269,0.5268,0.5267,0,0.4947,0.4934,0.4989,0.4992,0.5013,0.5018,0.5028,0.5088,0.5095,0.5131,0.512,0.5133,0.5146,0.5155,0.5196,0.5211,0.5232,0.5182,0.5235,0.5218,0.523,0.5229,0.5227,0.517,0.5168,0.5166,0.5165,0,0.4819,0.4846,0.4858,0.4878,0.4888,0.4907,0.493,0.4929,0.4996,0.5,0.5009,0.502,0.5039,0.5051,0.5073,0.5095,0.514,0.5149,0.514,0.5122,0.5103,0.5111,0.5273,0.5151,0.5152,0.5153,0.5154,0.5155,0.4718,0.4709,0.4746,0.4757,0.4781,0.4801,0.4798,0.4835,0.4844,0.4866,0.4901,0.4905,0.4937,0.4972,0.499,0.4993,0.502,0.5008,0.5005,0.5001,0.4991,0.5104,0.4998,0.4998,0.4999,0.4999,0.5,0,0.4592,0.4619,0.4629,0.4659,0.4668,0.4712,0.4739,0.4743,0.4746,0.4773,0.4786,0.4795,0.4807,0.485,0.4866,0.486,0.4881,0.4862,0.4862,0.4866,0.4968,0.4972,0.4845,0.4845,0.4845,0.4845,0.4845,0.4845,0.4527,0.4515,0.4546,0.4547,0.4574,0.458,0.4591,0.4609,0.4632,0.464,0.4651,0.468,0.4713,0.4732,0.4744,0.4757,0.4759,0.4732,0.4751,0.4844,0.4859,0.4873,0.4878,0.4733,0.4733,0.465,0.4649,0.4648]}]]